DMSP 5D-2 F13 DEB, 42306

Orbit data source: Space-Track

DMSP 5D-2 F13 DEB, 42306 is space debris in SSO originally from a launch on Fri, 24 Mar 1995 UTC launched from the Air Force Western Test Range (AFWTR). Debris objects in space refer to the collection of defunct objects orbiting the Earth. Examples of debris include non-operational satellites, rocket bodies, and fragments generated from explosions, collisions, or faulty payload assembly.

Loading next visibility...
DMSP 5D-2 F13 DEB details
Identifier
42306, 1995-015HY
Orbit
SSO
Last TLE update12 hours ago
Origin
Flag of USUSAF SMC (US)
ManufacturerUnknown
MissionSpacecraft
Bus & MotorUnknown
MassUnknown
Launch date (UTC)
1995-03-24 (30 years ago)
Launch vehicleUnknown
Launch site
Air Force Western Test Range (AFWTR)
Object type
Payload
Rocket body
Debris
Shape & HBRUnknown
Radar Cross SectionSmall (<0.1 m²)

Expand to show TLE details & history

TLE from 12 hours ago
0 DMSP 5D-2 F13 DEB
1 42306U 95015HY  24339.61054332  .00055870  00000-0  98564-2 0  9999
2 42306  98.6815  33.9005 0013012  94.6861 265.5828 14.67138001484154
Epoch: 2024-12-04T14:39Z
Definitive object data (Epoch: 2024-12-04T14:39:10.942Z)
Latitude-0.00003°
Longitude100.20169°
Altitude673.918 km
Speed7.52 km/s
True Right ascension02h 15m 36s
True Declination0° 00' 00"
Sunlit
Object was in full shadow at TLE epoch
Visualization TLE readout
Latitude-28.06082°
Longitude-83.8949°
Altitude684.415 km
Speed7.511 km/s
Apparent Right ascension13h 33m 23s
Apparent Declination-33° 43' 56"
Sunlit
Object is in daylight
Visualization observer readout
Local Sidereal Time01:00:28
Azimuth310.655° NW
Elevation-80.973°
Doppler factor1
Orbital elements
Apogee altitude676.482 km
Perigee altitude658.147 km
Semi-major axis7,045.451 km
Eccentricity0.0013012
Inclination98.6815°
RAAN33.9005°
Arg. of periapsis94.6861°
True anomaly265.43416°
Mean anomaly265.5828°
Eccentric anomaly265.50848°
Mean motion3.67012 °/min
BSTAR0.0098564
Orbital period98.09 mins
Loading maneuver chart data...

DMSP 5D-2 F13 DEB Visibility forecast

Observer location: undefined°, undefined

Span
Click to sort rows by Start time (UTC) header in descending order
Start Az.
Max El. time (UTC)
Max El. Az.
Max El.
End time (UTC)
End Az.
8 mins2024-12-05 03:51:18.016Z168.627° S2024-12-05 03:55:18.016Z191.776° SSW43.233°2024-12-05 03:59:18.016Z343.477° N
4 mins2024-12-05 15:49:18.016Z69.632° E2024-12-05 15:50:18.016Z86.972° E19.437°2024-12-05 15:53:18.016Z135.821° SSE
6 mins2024-12-05 17:25:18.016Z343.507° N2024-12-05 17:28:18.016Z275.991° WNW29.48°2024-12-05 17:31:18.016Z228.753° WSW
5 mins2024-12-06 02:49:18.016Z104.646° ESE2024-12-06 02:51:18.016Z72.899° E20.047°2024-12-06 02:54:18.016Z24.059° NE
|